Fort Lewis, WA
on Friday, November 16, 2012

Friday
Previous Day Next Day
Daily Summary
 ActualAverage (KOLM)Record (KOLM)
Temperature
Mean Temperature °F 43°F  
Max Temperature 45°F 50°F 64°F (1949)
Min Temperature 32°F 36°F 16°F (2014)
Degree Days
Heating Degree Days 27 22  
Month to date heating degree days 322  
Since 1 July heating degree days 1116  
Cooling Degree Days 0 0  
Month to date cooling degree days 0  
Year to date cooling degree days 106  
Moisture
Dew Point 40°F   
Average Humidity 98    
Maximum Humidity 100    
Minimum Humidity 92    
Precipitation
Precipitation 0.12 in 0.30 in 1.97 in (1956)
Month to date precipitation 4.37  
Year to date precipitation 38.28  
Wind
Wind Speed 4 mph   
Max Wind Speed 8 mph   
Max Gust Speed mph   
Visibility 6 miles   
Events Fog   

Key: T is trace of precipitation, MM is missing value
Source: NWS Daily Summary
Time(PST)TemperatureDew PointHumidity Pressure Visibility Wind DirectionWind SpeedGust SpeedPrecipitationEvents Conditions
12:03 AM 37.4°F 37.4°F 100% 29.95 in 0.5 miles SE 4.6 mph - N/A Fog Fog
12:18 AM 37.4°F 37.4°F 100% 29.95 in 0.5 miles SE 4.6 mph - N/A Fog Fog
12:38 AM 37.4°F 35.6°F 93% 29.94 in 0.2 miles SE 4.6 mph - N/A Fog Fog
12:58 AM 36.5°F 36.3°F 99% 29.96 in 0.2 miles SE 5.8 mph - N/A Fog Fog
1:43 AM 33.8°F 33.8°F 100% 29.94 in 0.5 miles SSE 5.8 mph - N/A Fog Fog
1:58 AM 34.2°F 34.0°F 99% 29.96 in 0.5 miles SSE 5.8 mph - N/A Fog Fog
2:58 AM 34.2°F 34.0°F 99% 29.94 in 0.2 miles SSE 2.3 mph - N/A Fog Fog
3:18 AM 33.8°F 33.8°F 100% 29.92 in 0.5 miles SSE 2.3 mph - N/A Fog Fog
3:33 AM 33.8°F 33.8°F 100% 29.91 in 0.2 miles SE 3.5 mph - N/A Fog Fog
3:58 AM 34.5°F 34.2°F 99% 29.93 in 0.5 miles ESE 3.5 mph - N/A Fog Fog
4:03 AM 33.8°F 33.8°F 100% 29.91 in 0.5 miles ESE 4.6 mph - N/A Fog Fog
4:08 AM 33.8°F 33.8°F 100% 29.91 in 0.8 miles ESE 4.6 mph - N/A   Mist
4:13 AM 33.8°F 33.8°F 100% 29.91 in 0.8 miles ESE 4.6 mph - N/A   Mist
4:18 AM 33.8°F 32.0°F 93% 29.91 in 1.2 miles SE 4.6 mph - N/A   Overcast
4:23 AM 32.0°F 32.0°F 100% 29.91 in 1.5 miles SE 3.5 mph - N/A   Overcast
4:28 AM 32.0°F 32.0°F 100% 29.91 in 0.8 miles SE 3.5 mph - N/A   Overcast
4:33 AM 32.0°F 32.0°F 100% 29.91 in 0.8 miles SE 3.5 mph - N/A   Overcast
4:38 AM 32.0°F 32.0°F 100% 29.91 in 0.5 miles SE 3.5 mph - N/A Fog Fog
4:48 AM 32.0°F 32.0°F 100% 29.91 in 0.8 miles ESE 3.5 mph - N/A   Overcast
4:53 AM 32.0°F 32.0°F 100% 29.91 in 0.8 miles ESE 3.5 mph - N/A   Overcast
4:58 AM 33.6°F 33.4°F 99% 29.93 in 1.0 miles SE 2.3 mph - N/A   Overcast
5:13 AM 32.0°F 32.0°F 100% 29.92 in 0.8 miles SSE 2.3 mph - N/A   Overcast
5:58 AM 34.2°F 34.0°F 99% 29.92 in 7.0 miles ESE 3.5 mph - N/A   Overcast
6:23 AM 33.8°F 33.8°F 100% 29.90 in 10.0 miles ESE 2.3 mph - N/A   Overcast
6:58 AM 34.3°F 34.2°F 99% 29.92 in 10.0 miles ESE 5.8 mph - N/A   Mostly Cloudy
7:58 AM 35.6°F 35.4°F 99% 29.93 in 10.0 miles SSE 4.6 mph - N/A   Mostly Cloudy
8:58 AM 36.9°F 36.5°F 99% 29.92 in 10.0 miles Variable 1.2 mph - N/A   Overcast
9:58 AM 39.9°F 38.5°F 95% 29.92 in 10.0 miles North 2.3 mph - N/A   Overcast
10:58 AM 41.5°F 39.6°F 93% 29.93 in 10.0 miles WNW 2.3 mph - N/A   Overcast
11:58 AM 42.8°F 40.6°F 92% 29.91 in 10.0 miles ENE 2.3 mph - N/A   Scattered Clouds
12:02 PM 42.8°F 41.0°F 93% 29.89 in 10.0 miles East 2.3 mph - N/A   Scattered Clouds
12:41 PM 42.8°F 41.0°F 93% 29.87 in 10.0 miles NE 4.6 mph - N/A   Mostly Cloudy
12:57 PM 42.8°F 42.8°F 100% 29.85 in 10.0 miles NNE 8.1 mph - N/A   Mostly Cloudy
12:58 PM 43.0°F 41.9°F 96% 29.87 in 10.0 miles NNE 6.9 mph - 0.00 in   Mostly Cloudy
1:01 PM 42.8°F 42.8°F 100% 29.85 in 10.0 miles NNE 6.9 mph - N/A   Light Drizzle
1:58 PM 43.9°F 43.0°F 97% 29.85 in 9.0 miles East 2.3 mph - 0.02 in   Light Drizzle
2:58 PM 43.9°F 42.8°F 96% 29.84 in 4.0 miles WNW 2.3 mph - 0.05 in   Light Drizzle
3:21 PM 44.6°F 42.8°F 93% 29.81 in 10.0 miles ENE 3.5 mph - N/A   Overcast
3:58 PM 44.1°F 43.3°F 97% 29.82 in 10.0 miles NNE 1.2 mph - 0.01 in   Overcast
4:11 PM 44.6°F 42.8°F 93% 29.80 in 10.0 miles North 1.2 mph - N/A   Light Drizzle
4:46 PM 44.6°F 44.6°F 100% 29.79 in 6.0 miles NW 2.3 mph - N/A   Light Drizzle
4:56 PM 44.6°F 44.6°F 100% 29.79 in 9.0 miles WSW 1.2 mph - N/A   Overcast
4:58 PM 44.4°F 43.9°F 98% 29.81 in 10.0 miles West 2.3 mph - N/A   Overcast
5:06 PM 44.6°F 44.6°F 100% 29.79 in 9.0 miles West 4.6 mph - N/A   Light Drizzle
5:11 PM 44.6°F 44.6°F 100% 29.79 in 8.0 miles West 4.6 mph - N/A   Light Drizzle
5:20 PM 44.6°F 44.6°F 100% 29.79 in 9.0 miles West 5.8 mph - N/A   Mostly Cloudy
5:25 PM 44.6°F 44.6°F 100% 29.79 in 10.0 miles West 4.6 mph - N/A   Overcast
5:30 PM 44.6°F 44.6°F 100% 29.78 in 9.0 miles West 4.6 mph - N/A   Overcast
5:40 PM 44.6°F 44.6°F 100% 29.78 in 10.0 miles WNW 3.5 mph - N/A   Overcast
5:49 PM 44.6°F 44.6°F 100% 29.78 in 10.0 miles NW 2.3 mph - N/A   Overcast
5:58 PM 44.6°F 44.6°F 100% 29.79 in 10.0 miles NNW 2.3 mph - 0.00 in   Overcast
6:03 PM 44.6°F 44.6°F 100% 29.77 in 9.0 miles NNW 2.3 mph - N/A   Overcast
6:18 PM 44.6°F 44.6°F 100% 29.77 in 8.0 miles NNW 1.2 mph - N/A   Overcast
6:43 PM 44.6°F 44.6°F 100% 29.76 in 7.0 miles ENE 1.2 mph - N/A   Overcast
6:58 PM 44.1°F 43.9°F 99% 29.78 in 9.0 miles Calm Calm - N/A   Overcast
7:13 PM 44.6°F 44.6°F 100% 29.75 in 8.0 miles NE 1.2 mph - N/A   Overcast
7:18 PM 44.6°F 44.6°F 100% 29.75 in 7.0 miles Calm Calm - N/A   Overcast
7:38 PM 44.6°F 44.6°F 100% 29.75 in 8.0 miles Calm Calm - N/A   Overcast
7:58 PM 44.1°F 43.7°F 99% 29.76 in 6.0 miles SE 2.3 mph - N/A   Overcast
8:25 PM 44.6°F 42.8°F 93% 29.74 in 7.0 miles SSE 2.3 mph - N/A   Light Drizzle
8:36 PM 44.6°F 42.8°F 93% 29.74 in 7.0 miles SSW 2.3 mph - N/A   Overcast
8:51 PM 44.6°F 42.8°F 93% 29.73 in 9.0 miles Calm Calm - N/A   Light Drizzle
8:58 PM 44.1°F 43.7°F 99% 29.75 in 8.0 miles Variable 1.2 mph - 0.01 in   Light Drizzle
9:04 PM 44.6°F 44.6°F 100% 29.72 in 9.0 miles ENE 2.3 mph - N/A   Mostly Cloudy
9:14 PM 44.6°F 44.6°F 100% 29.72 in 9.0 miles SE 1.2 mph - N/A   Mostly Cloudy
9:16 PM 44.6°F 44.6°F 100% 29.72 in 9.0 miles Calm Calm - N/A   Light Drizzle
9:26 PM 44.6°F 44.6°F 100% 29.72 in 10.0 miles Calm Calm - N/A   Overcast
9:58 PM 44.4°F 44.1°F 99% 29.73 in 10.0 miles WSW 2.3 mph - 0.01 in   Overcast
10:03 PM 44.6°F 44.6°F 100% 29.71 in 9.0 miles WSW 2.3 mph - N/A   Overcast
10:32 PM 44.6°F 44.6°F 100% 29.73 in 8.0 miles South 2.3 mph - N/A   Light Drizzle
10:58 PM 44.8°F 44.6°F 99% 29.73 in 7.0 miles ENE 4.6 mph - N/A   Drizzle
11:12 PM 44.6°F 44.6°F 100% 29.70 in 9.0 miles NE 3.5 mph - N/A   Overcast
11:28 PM 44.6°F 44.6°F 100% 29.70 in 9.0 miles East 2.3 mph - N/A   Light Drizzle
11:48 PM 44.6°F 44.6°F 100% 29.68 in 8.0 miles East 3.5 mph - N/A   Overcast
11:58 PM 45.1°F 45.0°F 99% 29.70 in 9.0 miles SSE 2.3 mph - 0.02 in   Overcast
Moon Phase
Nov. 16 Nov. 20 Nov. 28 Dec. 06 Dec. 13
Sunrise:07:16 AM (PST) Moon Rise:10:18 AM (PST)11/16
Sunset:04:33 PM (PST) Moon Set:07:37 PM (PST)11/16

Copyright © 2014 The Weather Underground, Inc.